パンスターズ彗星

P/2013 P1 ( PanSTARRS )

English version
Home page
Updated on April 29, 2014

---------------------------------------------------------------------

・ プロフィール

発見日 2013年8月1日
発見光度 19.8等
発見者 Pan-STARRS 1 telescope (Haleakala)

・ 写真集

・ 軌道要素

Epoch 2013 Mar. 9.0 TT = JDT 2456360.5
T 2013 Feb. 26.10678 TT                                 MPC
q   3.3901459            (2000.0)            P               Q
n   0.03912520     Peri.  138.10787     +0.49495724     +0.86249432
a   8.5933994      Node   160.79739     -0.85779902     +0.50436482
e   0.6054942      Incl.   18.70053     -0.13855748     -0.04146896
P  25.2
From 72 observations 2013 July 28-Nov. 5, mean residual 0".5.

・ 光度変化

        m1 = 11.2 + 5 logΔ + 10.0 log r

---------------------------------------------------------------------

軌道要素はM.P.E.C. 2013-V48に掲載されたものです。
光度グラフはComet for Windowsで作成したものです。

---------------------------------------------------------------------

Copyright(C) Seiichi Yoshida (comet@aerith.net). All rights reserved.